Date String (YYYY-MM-DD hh:mm:ss) UTC,Instrument flags,Ambient pressure (hPa),Sample flow (lpm),Bypass flow (lpm),Sample temperature (°C),Ambient temperature (°C),ASC tube jacket temperature (°C),LED temperature (°C),Box temperature (°C),Sample RH (%),Span deviation,Mass concentration (μg/m³),Mass concentration (μg/m³),Mass concentration (μg/m³)
DateTimeUTC,F1_M11,P_M11,Q1_M11,Q2_M11,T1_M11,T2_M11,T3_M11,T4_M11,T5_M11,U1_M11,ZSPAN_M11,X0_M11,X2_M11,X1_M11
2021-12-14 04:00:00,,0823.6,5.01,0.00,28.0,27.1,00.0,37.1,29.7,06.7,0000.0,0028.93,0006.92,0004.46
2021-12-14 04:01:00,,0823.6,4.99,0.00,28.1,27.2,00.0,37.1,29.7,06.7,0000.0,0029.59,0006.81,0004.45
2021-12-14 04:02:00,,0823.6,4.99,0.00,28.1,27.2,00.0,37.1,29.7,06.7,0000.0,0030.61,0006.89,0004.48
2021-12-14 04:03:00,,0823.6,5.01,0.00,28.0,27.1,00.0,37.1,29.7,06.6,0000.0,0030.96,0006.97,0004.52
2021-12-14 04:04:00,,0823.7,5.00,0.00,28.0,27.1,00.0,37.1,29.7,06.6,0000.0,0030.61,0007.04,0004.56
2021-12-14 04:05:00,,0823.7,5.00,0.00,28.0,27.1,00.0,37.1,29.8,06.5,0000.0,0029.87,0007.03,0004.57
2021-12-14 04:06:00,,0823.7,5.00,0.00,28.0,27.1,00.0,37.1,29.8,06.4,0000.5,0030.19,0007.03,0004.55
2021-12-14 04:07:00,,0823.7,5.00,0.00,28.0,27.1,00.0,37.1,29.8,06.5,0003.7,0029.45,0007.08,0004.53
2021-12-14 04:08:00,,0823.7,4.99,0.00,28.0,27.1,00.0,37.1,29.8,06.5,0002.6,0031.54,0007.10,0004.53
2021-12-14 04:09:00,,0823.7,5.00,0.00,28.0,27.1,00.0,37.1,29.7,06.6,0001.0,0033.00,0007.13,0004.52
2021-12-14 04:10:00,,0823.7,5.00,0.00,28.0,27.1,00.0,37.0,29.6,06.7,-000.1,0034.61,0007.18,0004.53
2021-12-14 04:11:00,,0823.7,5.00,0.00,28.0,27.0,00.0,37.0,29.6,06.7,0000.3,0034.40,0007.22,0004.53
2021-12-14 04:12:00,,0823.7,5.00,0.00,27.9,27.0,00.0,37.0,29.6,06.6,-000.6,0032.77,0007.26,0004.52
2021-12-14 04:13:00,,0823.7,4.99,0.00,27.9,27.0,00.0,37.0,29.5,06.6,-001.8,0032.12,0007.21,0004.51
2021-12-14 04:14:00,,0823.7,5.01,0.00,27.9,27.0,00.0,37.0,29.6,06.6,-001.2,0031.21,0007.17,0004.49
2021-12-14 04:15:00,,0823.7,4.99,0.00,27.9,27.0,00.0,37.0,29.6,06.6,-000.4,0029.97,0007.17,0004.45
2021-12-14 04:16:00,,0823.7,5.01,0.00,27.9,27.0,00.0,37.0,29.5,06.7,-000.5,0029.72,0007.15,0004.45
2021-12-14 04:17:00,,0823.7,5.00,0.00,27.9,27.0,00.0,37.0,29.6,06.6,-000.3,0029.35,0007.13,0004.46
2021-12-14 04:18:00,,0823.8,5.00,0.00,27.9,27.0,00.0,36.9,29.6,06.7,0000.1,0029.21,0007.03,0004.45
2021-12-14 04:19:00,,0823.7,4.99,0.00,27.9,27.0,00.0,36.9,29.6,06.7,0000.2,0027.29,0006.96,0004.45
2021-12-14 04:20:00,,0823.7,5.02,0.00,27.9,27.0,00.0,36.9,29.5,06.7,0000.8,0026.11,0006.99,0004.44
2021-12-14 04:21:00,,0823.7,4.99,0.00,27.8,26.9,00.0,36.9,29.5,06.7,0000.9,0025.38,0006.93,0004.44
2021-12-14 04:22:00,,0823.7,5.01,0.00,27.8,26.9,00.0,36.9,29.5,06.7,0001.5,0025.13,0006.88,0004.44
2021-12-14 04:23:00,,0823.7,5.01,0.00,27.8,26.9,00.0,36.9,29.5,06.7,0002.9,0026.69,0006.84,0004.43
2021-12-14 04:24:00,,0823.8,4.99,0.00,27.8,26.9,00.0,36.9,29.6,06.7,0004.4,0027.03,0006.83,0004.43
2021-12-14 04:25:00,,0823.8,5.00,0.00,27.8,26.9,00.0,36.9,29.6,06.8,0004.6,0028.56,0006.84,0004.42
2021-12-14 04:26:00,,0823.9,5.01,0.00,27.8,26.9,00.0,36.9,29.6,06.8,0004.4,0030.53,0006.85,0004.46
2021-12-14 04:27:00,,0824.0,4.99,0.00,27.8,26.9,00.0,36.9,29.6,06.7,0003.5,0031.25,0006.94,0004.48
2021-12-14 04:28:00,,0823.9,5.01,0.00,27.8,26.9,00.0,36.9,29.5,06.7,0003.7,0031.51,0006.96,0004.48
2021-12-14 04:29:00,,0824.0,4.99,0.00,27.8,26.9,00.0,36.9,29.5,06.7,0000.9,0032.70,0007.00,0004.47
2021-12-14 04:30:00,,0823.9,5.00,0.00,27.8,26.9,00.0,36.9,29.5,06.8,0000.6,0032.46,0007.09,0004.49
2021-12-14 04:31:00,,0823.8,5.00,0.00,27.8,26.9,00.0,36.8,29.4,06.8,-000.1,0033.56,0007.04,0004.50
2021-12-14 04:32:00,,0823.9,5.01,0.00,27.8,26.9,00.0,36.8,29.5,06.8,-000.1,0035.54,0007.05,0004.51
2021-12-14 04:33:00,,0824.0,5.00,0.00,27.8,26.9,00.0,36.8,29.5,06.8,0000.5,0035.37,0007.08,0004.51
2021-12-14 04:34:00,,0823.9,4.99,0.00,27.8,26.9,00.0,36.8,29.5,06.8,-001.3,0034.42,0007.14,0004.53
2021-12-14 04:35:00,,0824.0,5.01,0.00,27.8,26.9,00.0,36.8,29.4,06.8,-001.2,0035.89,0007.10,0004.52
2021-12-14 04:36:00,,0824.0,5.01,0.00,27.7,26.9,00.0,36.8,29.4,06.8,-000.7,0034.33,0007.07,0004.52
2021-12-14 04:37:00,,0824.0,4.99,0.00,27.7,26.8,00.0,36.8,29.4,06.8,0000.8,0034.57,0007.11,0004.51
2021-12-14 04:38:00,,0824.0,5.00,0.00,27.7,26.8,00.0,36.8,29.4,06.8,0002.7,0035.33,0007.02,0004.48
2021-12-14 04:39:00,,0824.0,5.00,0.00,27.7,26.8,00.0,36.8,29.4,06.8,0002.3,0035.57,0007.03,0004.49
2021-12-14 04:40:00,,0824.0,5.00,0.00,27.7,26.8,00.0,36.8,29.4,06.8,0002.9,0036.22,0007.02,0004.51
2021-12-14 04:41:00,,0824.1,5.00,0.00,27.7,26.8,00.0,36.8,29.4,06.8,0003.6,0036.10,0007.01,0004.50
2021-12-14 04:42:00,,0824.1,5.01,0.00,27.7,26.8,00.0,36.8,29.4,06.8,0004.3,0035.13,0007.03,0004.49
2021-12-14 04:43:00,,0824.0,5.00,0.00,27.7,26.8,00.0,36.8,29.4,06.8,0004.3,0032.89,0006.98,0004.50
2021-12-14 04:44:00,,0824.0,5.00,0.00,27.7,26.8,00.0,36.7,29.4,06.8,0003.0,0032.91,0006.98,0004.50
2021-12-14 04:45:00,,0824.0,4.99,0.00,27.7,26.8,00.0,36.7,29.4,06.8,0002.8,0032.39,0006.99,0004.51
2021-12-14 04:46:00,,0824.1,5.02,0.00,27.7,26.8,00.0,36.7,29.4,06.8,0002.9,0030.43,0006.99,0004.52
2021-12-14 04:47:00,,0824.0,4.99,0.00,27.7,26.8,00.0,36.7,29.4,06.8,0003.5,0031.25,0006.99,0004.54
2021-12-14 04:48:00,,0824.1,5.01,0.00,27.7,26.8,00.0,36.7,29.4,06.8,0003.0,0029.88,0007.00,0004.56
2021-12-14 04:49:00,,0824.1,5.01,0.00,27.7,26.8,00.0,36.7,29.4,06.8,0001.4,0027.52,0007.03,0004.59
2021-12-14 04:50:00,,0824.1,5.01,0.00,27.7,26.7,00.0,36.7,29.3,06.8,0001.0,0026.38,0006.99,0004.59
2021-12-14 04:51:00,,0824.1,4.99,0.00,27.6,26.7,00.0,36.7,29.3,06.8,0000.7,0025.81,0007.01,0004.59
2021-12-14 04:52:00,,0824.1,5.00,0.00,27.6,26.7,00.0,36.7,29.3,06.8,0000.1,0027.24,0007.03,0004.62
2021-12-14 04:53:00,,0824.0,5.02,0.00,27.6,26.7,00.0,36.7,29.3,06.8,0000.0,0027.80,0007.05,0004.63
2021-12-14 04:54:00,,0824.0,4.98,0.00,27.6,26.7,00.0,36.7,29.3,06.8,-000.5,0027.96,0007.13,0004.62
2021-12-14 04:55:00,,0824.1,5.02,0.00,27.6,26.7,00.0,36.7,29.2,06.8,-000.9,0027.62,0007.20,0004.61
2021-12-14 04:56:00,,0824.1,4.98,0.00,27.6,26.7,00.0,36.7,29.2,06.8,-000.6,0028.80,0007.22,0004.60
2021-12-14 04:57:00,,0824.1,5.01,0.00,27.6,26.7,00.0,36.7,29.2,06.8,-000.6,0029.45,0007.19,0004.60
2021-12-14 04:58:00,,0824.1,4.99,0.00,27.6,26.7,00.0,36.6,29.3,06.8,-001.1,0029.00,0007.23,0004.60
2021-12-14 04:59:00,,0824.1,5.01,0.00,27.6,26.7,00.0,36.6,29.3,06.8,-001.3,0028.99,0007.15,0004.60
